Volver al catálogo

STARLINK-36069

ActivoComunicacionesVLEO
NORAD 66806·PAYLOAD·🇺🇸 United States

Lanzado Dec 1, 2025 desde Cape Canaveral Space Force Station

Loading…

Próximos Pases (próximas 24 horas)

TLE

ActualizadoSource: CelesTrak SupGP

Época: Sep 14, 2026, 21:36 UTC

1 66806C 25278R   26257.90048611 -.00008280  00000+0 -30024-3 0  2579
2 66806  43.0004 126.1521 0001468 269.0403  47.6495 15.27546859    18

Sigue STARLINK-36069 en tiempo real con AllMySat

Download on the App Store